CAPE
0 0 0 0 0 0 0 0 0 0 0 0 1 0 0 0 0 0 1 2 0 1 0 1 0 0 0 0 188 176 18 53 46 7 0 11 14 37 28 37 14 9 12 0
0 0 0 0 0 0 0 0 0 0 0 0 0 0 0 0 3 1 1 1 2 0 1 0 0 0 0 1 1 95 37 115 106 42 1 5 5 4 27 39 44 33 29 8
0 0 0 0 0 0 0 0 0 0 0 0 0 0 0 0 2 3 1 2 0 1 5 2 2 1 0 0 1 3 4 0 86 92 19 16 29 2 28 19 28 43 44 46
0 0 0 0 0 0 0 0 0 0 0 0 0 0 0 0 0 3 4 3 4 3 3 2 4 1 1 0 0 1 4 2 2 1 39 30 2 0 1 9 72 42 41 6
0 0 0 0 0 0 0 0 0 0 0 1 0 0 0 0 0 0 2 3 8 8 5 1 2 2 2 0 0 3 2 4 4 2 4 1 0 20 17 28 45 8 0 0
0 0 0 0 0 0 0 0 0 0 0 0 0 0 0 0 1 0 1 4 2 8 12 1 0 2 1 1 0 1 2 2 2 2 1 3 3 2 2 2 2 2 2 2
0 0 0 0 0 0 0 0 0 0 0 0 0 0 0 0 0 0 0 0 0 0 0 0 0 0 1 1 0 2 0 0 2 2 1 0 0 1 1 1 0 1 1 1
0 0 0 0 0 0 0 0 0 0 0 0 0 0 0 0 0 0 0 0 0 0 0 0 0 0 0 0 0 0 0 0 2 2 0 0 1 1 1 1 1 0 0 0
0 0 0 0 0 0 0 0 0 0 0 0 0 0 0 0 0 0 0 0 0 0 0 0 0 0 0 0 0 0 0 0 0 0 0 0 0 1 1 1 0 0 0 0
0 0 0 0 0 0 0 0 0 0 0 0 0 0 0 0 0 0 0 0 0 0 0 0 0 0 0 0 0 0 0 0 0 0 0 0 0 0 0 0 0 0 1 0
0 0 0 0 0 0 0 0 0 0 0 0 0 0 0 0 0 0 0 0 0 0 0 0 0 0 0 0 0 0 0 0 0 0 0 0 0 0 0 0 0 0 0 0
0 0 0 0 0 0 0 0 0 0 0 0 0 0 0 0 0 0 0 0 0 0 0 0 0 0 0 0 0 0 0 0 0 0 0 0 0 0 0 0 0 0 0 0
0 0 0 0 0 0 0 0 0 0 0 0 0 0 0 0 0 0 0 0 0 0 0 0 0 0 0 0 0 0 0 0 0 0 0 0 0 0 0 0 0 0 0 0
0 0 0 0 0 0 0 0 0 0 0 0 0 0 0 0 0 0 0 0 0 0 0 0 0 0 0 0 0 0 0 0 0 0 0 0 0 0 0 0 0 0 0 0
0 0 0 0 0 0 0 0 0 0 0 0 0 0 0 0 0 0 0 0 0 0 0 0 0 0 0 0 0 0 0 0 0 0 0 0 0 0 0 0 0 0 0 0
0 0 0 0 0 0 0 0 0 0 0 0 0 0 0 0 0 0 0 0 0 0 0 0 0 0 0 0 0 0 0 0 0 0 0 0 0 0 0 0 0 0 0 0
0 0 0 0 0 0 0 0 0 0 0 0 0 0 0 0 0 0 0 0 0 0 0 0 0 0 0 0 0 0 0 0 0 0 0 0 0 0 0 0 0 0 0 0
0 0 0 0 0 0 0 0 0 0 0 0 0 0 0 0 0 0 0 0 0 0 0 0 0 0 0 0 0 0 0 0 0 0 0 0 0 0 0 0 0 0 0 0
0 0 0 0 0 0 0 0 0 0 0 0 0 0 0 0 0 0 0 0 0 0 0 0 0 0 0 0 0 0 0 0 0 0 0 0 0 0 0 0 0 0 0 0
0 0 0 0 0 0 0 0 0 0 0 0 0 0 0 0 0 0 0 0 0 0 0 0 0 0 0 0 0 0 0 0 0 0 0 0 0 0 0 0 0 0 0 0
0 0 0 0 0 0 0 0 0 0 0 0 0 0 0 0 0 0 0 0 0 0 0 0 0 0 0 0 0 0 0 0 0 0 0 0 0 0 0 0 0 0 0 0
0 0 0 0 0 0 0 0 0 0 0 0 0 0 0 0 0 0 0 0 0 0 0 0 0 0 0 0 0 0 0 0 0 0 0 0 0 0 0 0 0 0 0 0
0 0 0 0 0 0 0 0 0 0 0 0 0 0 0 0 0 0 0 0 0 0 0 0 0 0 0 0 0 0 0 0 0 0 0 0 0 0 0 0 0 0 0 0
0 0 0 0 0 0 0 0 0 0 0 0 0 0 0 0 0 0 0 0 0 0 0 0 0 0 0 0 0 0 0 0 0 0 0 0 0 0 0 0 0 0 0 0
0 0 0 0 0 0 0 0 0 0 0 0 0 0 0 0 0 0 0 0 0 0 0 0 0 0 0 0 0 0 0 0 0 0 0 0 0 0 0 0 0 0 0 0
0 0 0 0 0 0 0 0 0 0 0 0 0 0 0 0 0 0 0 0 0 0 0 0 0 0 0 0 0 0 0 0 0 0 0 0 0 0 0 0 0 0 0 0
CIN
0 0 0 0 0 0 0 0 0 0 0 0 -2 -1 0 0 0 0 0 0 0 0 0 0 0 0 0 0 -2 -47 -174 -60 -58 -88 0 -15 -12 -8 -10 -12 -9 -11 -14 0
0 0 0 0 0 0 0 0 0 0 0 -9 -1 0 0 0 0 0 0 0 0 0 0 0 0 0 0 0 0 -12 -39 -25 -10 -30 -19 -20 -29 -28 -14 -17 -18 -10 -11 -14
0 0 0 0 0 0 0 0 0 0 0 0 0 0 0 0 0 0 0 0 0 0 0 0 0 0 0 0 0 0 -49 -3 -14 -19 -28 -14 -13 -11 -20 -16 -18 -16 -13 -10
0 0 0 0 0 0 0 0 0 0 -1 0 0 0 0 0 0 0 0 0 0 0 -1 0 0 0 0 0 0 0 0 0 0 -7 -19 -32 -16 0 -32 -48 -25 -27 -42 -43
0 0 0 0 0 0 0 0 0 0 0 0 0 0 0 0 0 0 0 0 0 0 0 0 0 0 0 0 0 0 0 0 0 0 0 0 0 -8 -13 -11 -14 -41 0 0
0 0 0 0 0 0 0 0 0 0 -4 0 0 0 0 0 0 0 0 0 -1 0 0 0 0 0 0 0 0 0 0 0 0 0 0 0 0 0 0 0 0 0 0 0
0 0 0 0 0 0 0 0 0 0 -5 0 0 0 0 0 0 0 0 0 0 -2 -2 -2 0 0 0 0 0 0 0 0 0 0 0 0 0 0 0 0 0 0 0 0
0 0 0 0 0 0 0 0 0 0 0 0 0 0 0 0 0 0 0 0 0 0 0 0 0 0 0 0 0 0 0 0 0 0 0 0 0 0 0 0 0 0 0 0
0 0 0 0 0 0 0 0 0 0 0 0 0 0 0 0 0 0 0 0 0 0 0 0 0 0 0 0 0 0 0 0 0 0 0 0 0 0 0 0 0 0 0 0
0 0 0 0 0 0 0 0 0 0 0 0 0 0 0 0 0 0 0 0 0 0 0 0 0 0 0 0 0 0 0 0 0 0 0 0 0 0 0 0 0 0 0 0
0 0 0 0 0 0 0 0 0 0 0 0 0 0 0 0 0 0 0 0 0 0 0 0 0 0 0 0 0 0 0 0 0 0 0 0 0 0 0 0 0 0 0 0
0 0 0 0 0 0 0 0 0 0 0 0 0 0 0 0 0 0 0 0 0 0 0 0 0 0 0 0 0 0 0 0 0 0 0 0 0 0 0 0 0 0 0 0
0 0 0 0 0 0 0 0 0 0 0 0 0 0 0 0 0 0 0 0 0 0 0 0 0 0 0 0 0 0 0 0 0 0 0 0 0 0 0 0 0 0 0 0
0 0 0 0 0 0 0 0 0 0 0 0 0 0 0 0 0 0 0 0 0 0 0 0 0 0 0 0 0 0 0 0 0 0 0 0 0 0 0 0 0 0 0 0
0 0 0 0 0 0 0 0 0 0 0 0 0 0 0 0 0 0 0 0 0 0 0 0 0 0 0 0 0 0 0 0 0 0 0 0 0 0 0 0 0 0 0 0
0 0 0 0 0 0 0 0 0 0 0 0 0 0 0 0 0 0 0 0 0 0 0 0 0 0 0 0 0 0 0 0 0 0 0 0 0 0 0 0 0 0 0 0
0 0 0 0 0 0 0 0 0 0 0 0 0 0 0 0 0 0 0 0 0 0 0 0 0 0 0 0 0 0 0 0 0 0 0 0 0 0 0 0 0 0 0 0
0 0 0 0 0 0 0 0 0 0 0 0 0 0 0 0 0 0 0 0 0 0 0 0 0 0 0 0 0 0 0 0 0 0 0 0 0 0 0 0 0 0 0 0
0 0 0 0 0 0 0 0 0 0 0 0 0 0 0 0 0 0 0 0 0 0 0 0 0 0 0 0 0 0 0 0 0 0 0 0 0 0 0 0 0 0 0 0
0 0 0 0 0 0 0 0 0 0 0 0 0 0 0 0 0 0 0 0 0 0 0 0 0 0 0 0 0 0 0 0 0 0 0 0 0 0 0 0 0 0 0 0
0 0 0 0 0 0 0 0 0 0 0 0 0 0 0 0 0 0 0 0 0 0 0 0 0 0 0 0 0 0 0 0 0 0 0 0 0 0 0 0 0 0 0 0
0 0 0 0 0 0 0 0 0 0 0 0 0 0 0 0 0 0 0 0 0 0 0 0 0 0 0 0 0 0 0 0 0 0 0 0 0 0 0 0 0 0 0 0
0 0 0 0 0 0 0 0 0 0 0 0 0 0 0 0 0 0 0 0 0 0 0 0 0 0 0 0 0 0 0 0 0 0 0 0 0 0 0 0 0 0 0 0
0 0 0 0 0 0 0 0 0 0 0 0 0 0 0 0 0 0 0 0 0 0 0 0 0 0 0 0 0 0 0 0 0 0 0 0 0 0 0 0 0 0 0 0
0 0 0 0 0 0 0 0 0 0 0 0 0 0 0 0 0 0 0 0 0 0 0 0 0 0 0 0 0 0 0 0 0 0 0 0 0 0 0 0 0 0 0 0
0 0 0 0 0 0 0 0 0 0 0 0 0 0 0 0 0 0 0 0 0 0 0 0 0 0 0 0 0 0 0 0 0 0 0 0 0 0 0 0 0 0 0 0
Wind_Speed
19 21 21 22 20 18 19 23 24 22 20 24 26 29 32 34 36 39 34 34 34 33 34 31 29 30 31 31 29 31 33 28 23 18 17 14 17 19 20 19 19 18 16 16
20 20 19 20 19 17 19 21 23 21 21 22 25 26 30 33 34 33 34 28 36 33 28 24 22 24 26 30 32 24 28 24 23 15 12 12 16 19 21 21 20 20 19 18
17 18 18 20 20 20 19 20 23 23 22 21 26 22 30 33 30 29 31 29 30 26 21 19 18 19 22 24 25 24 16 27 22 17 12 11 13 18 20 22 22 22 22 20
17 16 17 18 18 20 21 17 21 23 24 26 25 25 23 36 31 29 24 25 17 17 16 15 16 17 19 19 18 25 14 13 19 19 14 12 11 13 18 21 21 23 20 22
17 17 18 17 17 18 16 16 16 17 21 20 22 23 22 33 35 28 30 22 26 23 13 13 13 14 15 12 13 18 10 8 11 13 14 12 15 19 18 20 20 16 15 17
12 15 16 14 13 12 14 17 16 16 19 23 23 22 24 31 32 30 31 30 32 21 14 12 12 16 12 10 17 15 7 5 6 2 7 9 14 15 14 17 15 14 14 14
18 16 16 16 16 15 22 24 26 26 26 24 23 24 21 23 24 29 32 31 18 11 14 11 17 14 13 12 17 11 10 14 9 12 9 11 13 17 15 13 9 14 11 12
16 17 17 17 16 16 20 21 24 28 26 23 22 23 20 20 23 24 28 24 27 28 28 14 10 20 19 15 18 15 15 14 15 16 17 17 16 15 13 12 10 13 14 14
15 15 16 17 14 15 19 22 18 21 19 21 19 19 16 18 21 25 27 29 30 25 29 28 18 10 16 11 14 15 18 19 18 18 16 16 19 18 16 15 15 14 16 16
15 14 16 16 14 13 16 16 20 21 25 25 19 18 16 15 18 21 24 25 25 28 29 29 28 31 24 20 19 20 24 24 23 19 20 20 20 18 16 16 16 15 15 19
16 14 15 16 14 14 17 17 18 18 18 22 21 16 12 13 15 18 19 21 23 24 24 25 27 27 18 21 26 23 21 21 20 20 19 21 21 20 17 17 17 16 17 18
15 14 12 13 14 13 14 15 16 19 21 16 16 15 12 12 13 15 17 18 19 21 22 22 20 21 24 26 26 23 22 21 23 23 21 21 21 20 20 19 18 18 18 19
12 14 14 15 15 14 14 13 14 13 15 14 15 15 11 11 11 11 14 16 18 18 19 20 21 21 22 22 22 23 23 22 22 21 20 20 21 21 21 22 21 21 20 21
14 13 11 11 14 16 16 13 12 11 15 14 8 12 7 7 8 8 10 13 15 17 18 19 20 21 22 23 23 23 23 23 23 22 22 22 21 21 20 21 21 22 22 22
12 13 12 12 14 13 10 7 6 7 6 10 10 9 3 7 8 9 8 10 12 15 17 19 20 21 22 23 23 23 23 23 23 23 22 22 22 22 21 22 22 22 23 23
11 15 15 18 16 14 10 8 5 5 5 5 4 3 3 4 6 6 6 7 10 12 14 16 18 19 21 21 20 18 16 15 15 20 21 22 23 23 23 24 24 24 25 25
11 13 16 19 19 23 21 8 5 6 6 4 4 3 8 3 8 9 8 5 6 9 12 15 17 18 19 19 17 17 16 16 16 19 20 21 22 24 24 24 24 24 26 27
11 11 14 16 20 17 17 13 12 6 7 3 1 2 2 6 6 8 8 6 5 8 10 14 15 16 16 17 16 15 13 14 16 16 17 18 19 21 21 24 27 28 28 27
14 11 15 17 14 26 20 13 10 10 11 1 6 1 3 3 4 3 7 6 4 6 9 11 13 14 14 14 14 14 14 17 18 17 17 18 21 23 26 28 30 30 30 30
14 13 12 16 17 20 18 15 13 14 16 6 6 5 4 6 2 2 7 6 4 6 7 10 11 12 12 11 12 14 16 18 19 19 19 21 24 26 28 28 29 28 29 30
11 14 12 14 17 20 13 12 11 17 16 15 5 6 7 7 2 3 9 8 5 5 6 9 10 9 10 12 13 15 16 17 18 20 22 23 24 25 26 27 28 29 30 30
10 9 15 14 17 24 8 9 12 13 12 13 8 5 7 3 2 8 11 9 7 5 6 7 7 9 11 12 13 15 16 18 19 21 22 24 25 25 25 25 26 27 29 31
15 15 16 11 14 14 2 13 7 11 12 12 7 4 7 4 4 9 11 10 7 4 4 6 5 7 9 11 12 13 16 18 19 21 22 24 25 26 27 28 29 30 31 34
19 14 18 18 17 14 8 9 9 6 9 10 7 4 7 6 5 10 11 9 4 1 2 3 5 7 8 9 11 13 15 17 18 20 23 24 25 27 28 30 31 34 37 36
18 8 14 22 23 22 14 10 9 5 6 6 3 4 6 6 9 11 10 8 4 1 1 3 4 5 4 7 9 12 14 16 18 20 22 25 27 30 32 34 35 37 34 32
17 17 17 20 16 14 17 9 8 7 5 2 3 4 5 7 9 10 9 6 4 3 2 4 4 4 4 7 10 13 15 17 19 22 26 28 30 31 34 39 39 34 32 34
Wind_Direction
25 19 18 21 22 25 18 10 6 8 16 6 2 355 355 352 346 344 349 343 340 334 302 289 279 274 273 264 263 251 235 241 238 241 244 240 240 253 262 267 271 271 272 275
19 17 22 21 20 18 17 11 10 15 16 14 5 2 7 4 1 6 5 4 342 332 302 294 284 279 275 273 270 254 231 237 238 231 231 250 252 253 261 268 271 272 277 278
18 14 19 17 17 21 18 17 14 10 15 21 10 13 11 11 13 15 15 18 354 14 300 296 290 287 291 284 276 271 233 238 239 238 235 251 264 263 262 265 272 275 277 282
21 28 23 19 20 23 18 31 20 18 17 12 20 9 18 7 16 20 30 34 52 57 307 305 297 295 305 289 287 271 264 241 252 254 246 251 261 270 269 268 273 277 287 286
23 18 21 22 27 26 26 19 19 23 25 22 23 20 24 16 14 27 26 50 46 61 313 312 310 308 312 298 309 294 288 258 265 275 266 276 287 286 286 278 278 284 290 298
24 24 24 32 26 38 28 19 26 38 29 22 22 24 24 23 18 25 30 30 23 349 338 331 322 332 312 289 346 275 331 357 336 239 353 323 317 310 297 293 284 284 293 306
15 22 28 28 32 42 25 22 15 15 20 18 23 23 30 32 38 33 34 45 2 337 351 344 350 332 319 301 314 307 357 1 324 349 357 350 339 331 323 311 325 308 305 312
23 20 20 26 36 33 26 29 20 11 13 15 24 22 30 39 39 40 41 71 14 19 47 353 345 354 351 324 317 325 354 359 349 358 357 349 356 0 335 345 350 332 324 309
23 25 20 21 37 40 27 24 34 23 26 20 27 30 42 42 41 33 29 36 29 6 21 18 356 345 352 335 337 356 4 1 353 344 346 354 3 356 356 345 342 334 314 320
20 21 12 21 41 47 35 37 23 25 16 14 25 28 39 51 47 42 38 25 17 27 30 31 28 56 22 3 1 11 20 17 16 6 5 4 13 11 344 335 346 339 326 338
11 23 21 18 33 31 26 27 27 28 29 17 19 29 57 60 45 48 38 32 29 24 20 21 27 26 1 14 17 12 11 12 8 5 6 15 18 20 10 1 354 343 343 352
9 15 21 16 23 32 26 24 24 19 17 25 23 24 60 57 48 52 52 41 20 17 16 15 5 9 16 20 17 9 8 10 14 18 17 19 14 17 17 12 5 2 1 358
23 15 14 14 12 26 19 26 26 31 27 18 20 22 58 59 60 49 45 40 38 22 8 7 7 6 4 5 5 8 7 7 9 11 12 11 12 15 18 18 19 12 1 358
4 5 7 3 3 7 2 17 22 24 12 15 20 15 62 93 100 78 54 43 42 36 36 17 8 5 5 4 2 1 2 4 8 9 10 8 7 5 5 6 5 3 3 6
358 354 356 345 338 346 347 341 352 358 360 7 23 16 74 141 140 125 85 57 39 31 24 20 17 4 358 357 359 358 2 4 6 11 10 8 7 7 9 7 6 6 5 5
346 347 351 340 340 340 332 313 297 300 304 305 271 261 16 147 129 128 108 65 37 26 24 16 19 25 25 4 351 337 328 331 334 1 5 7 10 11 11 13 13 15 14 13
341 345 345 337 341 337 335 320 269 325 332 283 285 220 353 107 152 157 141 101 57 33 26 15 6 9 14 14 337 338 335 343 351 0 3 5 8 9 6 8 6 1 4 10
331 342 340 338 339 339 352 10 16 6 357 216 332 21 130 149 146 148 146 128 86 25 16 3 358 1 6 2 344 332 330 341 349 348 345 346 351 356 351 359 4 12 17 16
313 327 334 331 332 323 333 339 351 358 354 192 198 144 82 78 86 100 145 139 92 37 18 1 353 352 348 349 341 345 345 354 355 343 332 335 345 350 356 0 359 4 3 3
307 309 314 324 328 333 345 357 15 20 354 27 174 167 117 119 160 171 148 135 90 38 26 8 354 336 331 311 306 347 355 353 350 339 334 345 356 2 6 10 6 7 4 0
295 301 280 302 315 324 327 342 9 351 2 20 94 156 156 170 183 106 134 132 108 64 33 10 349 338 303 299 317 341 341 342 339 347 12 20 16 13 11 9 6 2 359 357
283 289 301 302 312 316 342 2 344 358 13 15 43 132 159 155 79 128 143 139 124 90 19 3 348 316 309 336 348 332 346 15 18 16 9 9 10 11 12 9 6 1 356 353
288 286 303 291 315 330 317 333 346 2 6 9 32 88 149 144 131 140 144 141 131 95 27 328 351 346 3 9 10 15 15 10 15 15 14 11 10 9 6 3 0 356 354 349
286 277 300 302 298 292 290 308 331 338 356 5 24 95 143 156 146 144 142 141 139 95 38 342 335 326 341 5 10 16 13 17 17 14 9 9 7 3 2 360 357 352 348 347
286 272 274 295 298 309 296 264 280 307 336 351 31 129 149 151 152 150 150 154 163 162 301 307 317 338 24 11 14 12 13 13 12 10 7 4 1 359 357 356 353 350 350 349
271 279 267 288 297 291 305 290 267 247 243 271 157 156 167 169 165 161 162 170 198 191 245 281 304 321 353 359 351 353 356 1 2 358 355 354 354 356 354 348 349 354 352 351